Location: McFarlands Corners
(41.4117°N, 81.3382°W)
Time: 17:20:48
(UTC+00:00)

Vanguard 1 Rocket - Pass Details

Date: 17 February 2026
Orbit: 653 x 4214 km, 34.3° (Epoch: 8 March)

Event Time Altitude Azimuth Distance (km) Brightness Sun altitude
Rises 17:36:22 0° 216° (SW) 3,891 11.3 36.8°
Reaches altitude 10° 17:38:49 10° 206° (SSW) 3,233 11.3 36.8°
Maximum altitude 17:46:16 36° 143° (SE) 2,669 11.0 36.8°
Drops below altitude 10° 17:59:23 10° 85° (E) 5,724 11.5 36.6°
Sets 18:05:31 0° 79° (E) 7,324 11.9 36.5°
